SCP
0 0 0 0 0 0 0 0 0 0 0 0 0 1 1 1 0 1 1 0 0 0 0 0 0 1 1 1 1 1 0 0
0 0 0 0 0 0 0 0 1 1 1 1 0 1 1 1 1 2 2 1 1 1 0 0 0 0 0 1 1 1 1 1
0 0 0 0 0 0 0 0 1 1 1 1 1 1 1 1 1 1 1 1 2 1 1 0 1 1 1 1 1 2 2 1
0 0 0 0 0 0 0 0 0 1 1 1 2 3 2 2 1 1 1 1 2 1 1 1 1 1 0 0 1 1 1 0
0 0 0 0 0 0 0 0 0 1 1 1 2 2 2 1 1 1 1 1 2 1 1 1 1 1 1 1 1 2 1 1
0 0 0 0 0 0 0 0 0 0 2 1 2 2 1 1 1 1 1 1 1 1 1 1 0 1 1 1 1 1 1 1
0 0 0 0 0 0 0 0 0 1 1 1 2 3 1 1 1 1 1 1 1 1 1 0 1 1 1 1 0 1 1 2
0 0 0 0 0 0 0 0 1 0 0 1 1 1 1 1 1 2 2 2 1 1 0 1 1 1 1 0 1 1 2 1
0 0 0 0 0 0 1 1 2 1 0 1 1 1 1 1 1 2 2 2 1 1 1 1 1 0 1 1 1 2 2 1
0 0 0 0 0 0 1 1 2 1 0 1 1 1 1 1 1 2 1 1 1 1 1 1 0 0 0 1 2 2 1 1
0 0 0 0 0 0 0 0 0 1 1 1 2 2 2 2 1 1 1 1 1 1 1 1 1 1 1 2 2 1 1 1
0 0 0 0 0 0 0 0 0 0 1 1 1 1 1 1 2 1 1 1 1 1 1 1 1 1 2 1 1 1 1 1
0 0 0 0 0 0 0 0 0 0 1 1 1 1 2 1 1 1 1 1 1 1 1 1 1 1 2 1 1 1 0 0
0 0 0 0 0 0 0 0 0 0 1 1 1 1 2 2 2 1 1 2 1 1 1 1 1 1 1 1 0 0 0 0
0 0 0 0 0 0 0 0 0 0 0 1 1 2 2 2 1 1 2 2 1 1 1 1 1 1 1 0 0 0 0 0
0 0 0 0 0 0 0 0 1 1 1 1 2 2 2 1 2 2 2 1 1 1 1 1 1 1 0 0 0 0 0 0
0 0 0 0 0 0 0 0 1 1 1 2 2 1 1 2 1 2 1 1 1 1 1 1 1 0 0 0 0 0 0 0
0 0 0 0 0 0 1 1 1 1 1 1 1 1 1 1 1 1 1 1 1 1 1 0 0 0 0 0 0 0 0 0
0 0 0 0 0 1 1 1 1 0 0 0 1 1 1 1 1 1 1 1 0 0 0 0 0 0 0 0 0 0 0 0
0 1 1 0 0 1 1 0 0 0 0 0 0 0 0 0 1 1 0 0 0 0 0 0 0 0 0 0 0 0 0 0
Wind_Speed_500mb
18 21 24 23 21 27 34 38 37 44 48 50 53 53 62 70 74 75 72 68 58 57 45 51 46 40 35 29 26 23 20 18
29 28 27 26 21 18 23 25 30 36 43 50 50 54 56 59 65 76 77 75 71 60 49 42 51 39 38 33 30 28 28 25
42 36 36 32 30 25 21 27 34 38 40 42 48 55 59 58 55 63 73 65 69 56 53 49 43 40 38 35 33 32 32 27
42 39 39 38 38 45 44 40 39 38 35 38 45 54 59 61 52 54 70 64 63 54 58 55 50 46 41 36 34 29 26 25
54 51 45 44 42 41 55 47 38 42 44 52 53 59 61 57 57 58 64 66 66 62 55 55 52 46 51 44 35 31 24 29
59 55 47 42 38 35 39 39 44 46 54 53 57 58 58 54 50 48 56 61 60 63 55 52 50 51 48 42 34 30 27 33
50 45 41 38 40 47 47 46 51 58 55 56 57 58 60 54 46 45 49 53 53 52 46 48 57 46 47 39 34 31 30 36
50 47 43 42 44 55 60 64 67 63 54 56 52 51 55 50 44 43 46 45 46 42 40 45 54 48 50 43 36 33 32 25
58 54 51 52 52 65 64 65 61 58 49 42 39 44 43 42 40 44 44 40 34 36 37 43 46 45 44 43 37 31 28 25
66 64 58 55 58 61 63 64 65 53 45 42 36 32 30 31 32 42 37 31 33 37 39 36 41 38 43 40 34 30 21 23
71 67 62 59 60 60 50 52 56 46 42 39 39 33 34 35 36 32 32 32 37 37 38 34 37 38 34 38 35 28 20 26
72 73 71 65 59 46 44 45 42 50 46 42 38 32 28 29 32 29 30 33 32 36 33 32 35 34 37 32 27 25 26 22
73 73 68 60 54 52 54 64 60 55 53 42 38 32 25 22 24 29 33 34 35 32 33 36 38 34 31 27 26 27 22 22
53 58 53 49 40 42 48 54 55 53 48 40 35 35 32 31 32 38 38 37 35 38 38 36 35 32 28 28 27 23 21 22
33 31 31 36 30 31 31 37 40 41 38 35 34 35 33 34 35 37 40 36 36 39 39 34 29 32 27 25 22 21 21 21
27 33 29 30 30 28 29 27 29 31 32 33 34 35 34 36 38 40 36 34 35 38 33 30 28 26 23 20 18 19 22 22
35 28 23 22 22 26 21 27 30 33 37 39 40 38 40 42 43 39 37 38 35 34 32 29 24 20 20 22 21 22 24 24
14 9 19 21 21 25 30 34 39 40 41 42 42 44 42 46 43 40 39 36 34 31 27 21 20 20 21 22 22 25 27 27
10 4 15 27 32 36 39 40 43 43 43 43 45 42 43 43 40 38 34 32 28 24 21 20 20 18 18 21 21 19 25 30
7 7 22 34 38 39 41 43 44 43 44 44 43 42 41 40 37 33 30 27 23 21 22 20 16 16 14 15 17 20 26 28
Wind_Direction_500mb
209 221 220 222 229 238 240 252 259 259 254 251 248 253 247 244 242 241 240 234 228 230 222 227 225 226 231 235 242 243 241 237
247 253 258 258 261 256 223 268 282 277 262 262 259 254 254 247 246 242 237 236 233 225 216 217 224 222 226 221 221 221 229 238
268 267 266 272 271 242 239 266 273 284 282 265 267 263 259 253 240 244 239 229 230 223 217 213 219 217 225 226 229 230 239 235
258 259 264 266 264 255 251 265 267 272 274 277 271 272 264 255 241 233 249 232 228 220 219 222 219 219 221 227 232 230 240 249
259 262 261 259 262 258 251 258 255 270 276 278 271 267 263 250 250 240 241 242 224 224 220 222 221 220 228 228 228 232 237 251
262 262 260 254 251 254 265 249 262 268 276 273 268 265 259 252 241 236 238 238 226 231 221 224 221 221 229 228 225 240 244 249
261 257 252 254 261 272 266 258 262 275 274 271 263 258 257 247 236 232 233 230 223 218 220 222 221 219 222 221 230 235 245 246
256 258 267 267 267 268 265 264 269 269 271 268 255 252 249 243 231 226 226 224 218 220 218 216 222 216 222 223 224 231 232 249
267 271 269 268 265 272 269 262 259 257 269 263 253 240 240 236 225 226 224 218 216 219 210 219 215 210 212 227 225 224 231 238
267 268 267 266 267 269 269 261 255 259 267 257 239 238 229 225 218 229 216 210 215 215 205 209 206 203 209 211 212 216 227 233
265 265 263 263 261 264 265 261 254 255 261 251 247 231 221 218 223 217 206 206 212 212 206 192 202 193 202 202 209 219 234 248
262 264 263 261 260 257 258 259 250 252 259 247 242 226 217 216 207 209 204 205 204 197 188 189 192 182 197 198 214 226 245 251
261 261 260 260 258 254 251 255 255 259 257 239 238 204 201 194 183 189 187 182 180 175 175 175 176 177 186 201 219 239 246 230
266 262 256 249 250 244 243 246 245 243 238 230 220 194 181 172 173 169 166 166 164 168 169 172 178 182 197 220 228 240 222 226
264 264 246 237 237 229 221 227 226 228 222 213 193 187 180 171 163 155 156 157 161 170 173 175 182 193 203 218 230 215 214 218
268 273 246 234 224 220 221 217 203 198 185 173 167 167 156 155 150 154 152 158 160 164 170 179 187 197 214 220 212 205 214 215
285 267 222 208 201 210 188 174 163 157 153 149 148 145 144 152 145 139 145 152 162 163 173 181 192 206 211 207 203 212 214 213
310 225 183 178 166 147 145 143 143 142 139 140 138 139 142 143 145 145 145 152 158 165 175 188 204 201 202 211 217 218 216 221
341 177 166 144 141 141 138 139 135 135 136 136 133 135 140 141 142 145 150 156 161 168 181 183 183 190 207 223 228 226 221 224
347 138 139 143 141 140 136 135 135 137 133 132 133 135 139 141 145 149 157 161 162 162 164 169 179 199 216 228 234 230 229 235
Wind_Speed_850mb
18 21 24 23 21 27 34 38 37 44 48 50 53 53 62 70 74 75 72 68 58 57 45 51 46 40 35 29 26 23 20 18
29 28 27 26 21 18 23 25 30 36 43 50 50 54 56 59 65 76 77 75 71 60 49 42 51 39 38 33 30 28 28 25
42 36 36 32 30 25 21 27 34 38 40 42 48 55 59 58 55 63 73 65 69 56 53 49 43 40 38 35 33 32 32 27
42 39 39 38 38 45 44 40 39 38 35 38 45 54 59 61 52 54 70 64 63 54 58 55 50 46 41 36 34 29 26 25
54 51 45 44 42 41 55 47 38 42 44 52 53 59 61 57 57 58 64 66 66 62 55 55 52 46 51 44 35 31 24 29
59 55 47 42 38 35 39 39 44 46 54 53 57 58 58 54 50 48 56 61 60 63 55 52 50 51 48 42 34 30 27 33
50 45 41 38 40 47 47 46 51 58 55 56 57 58 60 54 46 45 49 53 53 52 46 48 57 46 47 39 34 31 30 36
50 47 43 42 44 55 60 64 67 63 54 56 52 51 55 50 44 43 46 45 46 42 40 45 54 48 50 43 36 33 32 25
58 54 51 52 52 65 64 65 61 58 49 42 39 44 43 42 40 44 44 40 34 36 37 43 46 45 44 43 37 31 28 25
66 64 58 55 58 61 63 64 65 53 45 42 36 32 30 31 32 42 37 31 33 37 39 36 41 38 43 40 34 30 21 23
71 67 62 59 60 60 50 52 56 46 42 39 39 33 34 35 36 32 32 32 37 37 38 34 37 38 34 38 35 28 20 26
72 73 71 65 59 46 44 45 42 50 46 42 38 32 28 29 32 29 30 33 32 36 33 32 35 34 37 32 27 25 26 22
73 73 68 60 54 52 54 64 60 55 53 42 38 32 25 22 24 29 33 34 35 32 33 36 38 34 31 27 26 27 22 22
53 58 53 49 40 42 48 54 55 53 48 40 35 35 32 31 32 38 38 37 35 38 38 36 35 32 28 28 27 23 21 22
33 31 31 36 30 31 31 37 40 41 38 35 34 35 33 34 35 37 40 36 36 39 39 34 29 32 27 25 22 21 21 21
27 33 29 30 30 28 29 27 29 31 32 33 34 35 34 36 38 40 36 34 35 38 33 30 28 26 23 20 18 19 22 22
35 28 23 22 22 26 21 27 30 33 37 39 40 38 40 42 43 39 37 38 35 34 32 29 24 20 20 22 21 22 24 24
14 9 19 21 21 25 30 34 39 40 41 42 42 44 42 46 43 40 39 36 34 31 27 21 20 20 21 22 22 25 27 27
10 4 15 27 32 36 39 40 43 43 43 43 45 42 43 43 40 38 34 32 28 24 21 20 20 18 18 21 21 19 25 30
7 7 22 34 38 39 41 43 44 43 44 44 43 42 41 40 37 33 30 27 23 21 22 20 16 16 14 15 17 20 26 28
Wind_Direction_850mb
209 221 220 222 229 238 240 252 259 259 254 251 248 253 247 244 242 241 240 234 228 230 222 227 225 226 231 235 242 243 241 237
247 253 258 258 261 256 223 268 282 277 262 262 259 254 254 247 246 242 237 236 233 225 216 217 224 222 226 221 221 221 229 238
268 267 266 272 271 242 239 266 273 284 282 265 267 263 259 253 240 244 239 229 230 223 217 213 219 217 225 226 229 230 239 235
258 259 264 266 264 255 251 265 267 272 274 277 271 272 264 255 241 233 249 232 228 220 219 222 219 219 221 227 232 230 240 249
259 262 261 259 262 258 251 258 255 270 276 278 271 267 263 250 250 240 241 242 224 224 220 222 221 220 228 228 228 232 237 251
262 262 260 254 251 254 265 249 262 268 276 273 268 265 259 252 241 236 238 238 226 231 221 224 221 221 229 228 225 240 244 249
261 257 252 254 261 272 266 258 262 275 274 271 263 258 257 247 236 232 233 230 223 218 220 222 221 219 222 221 230 235 245 246
256 258 267 267 267 268 265 264 269 269 271 268 255 252 249 243 231 226 226 224 218 220 218 216 222 216 222 223 224 231 232 249
267 271 269 268 265 272 269 262 259 257 269 263 253 240 240 236 225 226 224 218 216 219 210 219 215 210 212 227 225 224 231 238
267 268 267 266 267 269 269 261 255 259 267 257 239 238 229 225 218 229 216 210 215 215 205 209 206 203 209 211 212 216 227 233
265 265 263 263 261 264 265 261 254 255 261 251 247 231 221 218 223 217 206 206 212 212 206 192 202 193 202 202 209 219 234 248
262 264 263 261 260 257 258 259 250 252 259 247 242 226 217 216 207 209 204 205 204 197 188 189 192 182 197 198 214 226 245 251
261 261 260 260 258 254 251 255 255 259 257 239 238 204 201 194 183 189 187 182 180 175 175 175 176 177 186 201 219 239 246 230
266 262 256 249 250 244 243 246 245 243 238 230 220 194 181 172 173 169 166 166 164 168 169 172 178 182 197 220 228 240 222 226
264 264 246 237 237 229 221 227 226 228 222 213 193 187 180 171 163 155 156 157 161 170 173 175 182 193 203 218 230 215 214 218
268 273 246 234 224 220 221 217 203 198 185 173 167 167 156 155 150 154 152 158 160 164 170 179 187 197 214 220 212 205 214 215
285 267 222 208 201 210 188 174 163 157 153 149 148 145 144 152 145 139 145 152 162 163 173 181 192 206 211 207 203 212 214 213
310 225 183 178 166 147 145 143 143 142 139 140 138 139 142 143 145 145 145 152 158 165 175 188 204 201 202 211 217 218 216 221
341 177 166 144 141 141 138 139 135 135 136 136 133 135 140 141 142 145 150 156 161 168 181 183 183 190 207 223 228 226 221 224
347 138 139 143 141 140 136 135 135 137 133 132 133 135 139 141 145 149 157 161 162 162 164 169 179 199 216 228 234 230 229 235